カタログに戻る

THOR ABLESTAR DEB

運用中LEO
NORAD 334·DEBRIS·🇺🇸 United States

打ち上げ Jun 29, 1961 から Cape Canaveral Space Force Station

Loading…

次のパス (今後24時間)

TLE

最新Source: Space-Track

元期: Sep 7, 2026, 06:45 UTC

1 00334U 61015DL  26250.28129774 -.00000031  00000-0  34208-4 0  9994
2 00334  66.9265 344.2595 0074709  39.3051 321.3419 13.91757418307487

AllMySatでTHOR ABLESTAR DEBをリアルタイム追跡

Download on the App Store